Temperature
18 18 18 18 18 18 18 18 18 18 18 18 18 18 18 18 18 18 18 18 18 18 18 18 18 18 18 18 18 18 18 18 18 18 18 18 18 18 18 18 18 18 18
18 18 18 18 18 18 18 18 18 18 18 18 18 18 18 18 18 18 18 18 18 18 18 18 18 18 18 18 18 18 18 18 18 18 18 18 18 18 18 18 18 18 18
18 18 18 18 18 18 17 17 17 17 17 17 17 17 17 17 17 17 17 17 17 17 18 18 18 18 18 18 18 18 18 18 18 18 17 17 18 18 18 18 18 18 18
18 18 18 18 17 17 17 17 17 17 17 17 17 17 17 17 17 17 17 17 17 17 17 17 17 17 18 18 18 18 18 18 17 17 17 17 17 18 18 18 18 18 18
18 18 18 18 17 17 17 17 17 17 17 17 17 17 17 17 17 17 17 17 17 17 17 17 17 17 17 17 17 17 17 17 17 17 17 17 17 17 18 18 18 18 18
18 18 18 17 17 17 17 17 17 17 17 17 17 17 17 17 17 17 17 17 17 17 17 17 17 17 17 17 17 17 17 17 17 17 17 17 17 17 17 18 18 18 18
18 18 18 17 17 17 17 17 17 17 17 17 16 16 16 16 16 17 17 17 17 17 17 17 17 17 17 17 17 17 17 17 17 17 17 17 17 17 17 17 17 17 18
18 18 17 17 17 17 17 17 17 17 16 16 16 16 16 16 16 16 16 16 16 16 17 17 17 17 17 17 17 17 17 17 17 17 17 17 17 17 17 17 17 17 17
18 18 17 17 17 17 17 17 16 16 16 16 16 16 16 16 16 16 16 16 16 16 16 16 16 17 17 17 17 17 17 17 17 17 17 17 17 17 17 17 17 17 17
18 18 17 17 17 17 17 17 16 16 16 16 16 16 16 16 16 16 16 16 16 16 16 16 16 17 17 17 17 17 17 16 16 16 16 17 17 17 17 17 17 17 17
18 18 18 17 17 17 17 17 16 16 16 16 16 16 16 16 16 16 16 16 16 16 16 16 16 16 16 16 16 16 16 16 16 16 16 16 17 17 17 17 17 17 16
19 18 18 18 17 17 17 17 16 16 16 16 16 16 16 16 16 16 16 16 16 16 16 16 16 16 16 16 16 16 16 16 16 16 16 16 16 16 16 16 16 16 16
19 19 18 18 18 17 17 17 17 16 16 16 16 16 16 16 16 16 16 16 16 16 16 16 16 16 16 16 16 16 16 16 16 16 16 16 16 16 16 16 16 16 16
19 19 18 18 18 18 17 17 17 17 17 17 17 16 16 16 16 16 16 16 16 16 16 16 16 16 16 16 16 16 16 16 16 16 16 16 16 16 16 16 16 16 16
19 19 18 18 18 18 17 17 17 17 17 17 16 16 16 16 16 16 16 16 16 16 16 16 16 16 16 16 16 16 16 15 15 15 15 15 16 16 16 16 16 16 16
19 19 18 18 18 18 18 17 17 17 17 17 16 17 17 16 16 16 16 16 16 16 16 16 16 16 16 16 16 16 15 15 15 15 15 15 15 15 16 16 16 16 16
19 19 18 18 18 18 18 17 17 17 17 17 16 17 17 17 16 16 16 16 16 16 16 16 16 16 16 16 16 16 15 15 15 15 15 15 15 15 15 16 16 16 16
19 19 18 18 18 17 17 17 17 17 17 17 16 17 17 16 16 16 16 16 16 16 16 16 16 16 16 16 16 15 15 15 15 15 15 15 15 15 15 15 15 15 15
19 19 18 18 18 17 17 17 17 17 17 16 16 16 16 16 16 16 16 16 16 16 16 16 16 16 16 16 16 15 15 15 15 15 15 15 15 15 15 15 15 15 15
19 19 18 18 18 17 17 17 17 16 16 16 16 16 16 16 16 16 16 16 16 16 16 16 16 15 15 15 15 15 15 15 15 15 15 15 15 14 14 14 15 15 15
19 19 18 18 18 17 17 17 17 16 16 16 16 16 16 16 16 16 16 16 16 16 16 15 15 15 15 15 15 15 15 15 15 15 15 15 14 14 14 14 14 14 14
19 19 18 18 18 17 17 17 16 16 16 16 16 16 16 16 16 16 16 16 16 16 15 15 15 15 15 15 15 15 15 15 15 15 15 15 14 14 14 14 14 14 14
19 19 19 18 17 17 17 17 16 16 16 16 16 16 16 16 16 16 16 16 16 15 15 15 15 15 15 15 15 16 16 15 15 15 15 15 14 14 14 14 14 14 14
19 19 19 18 18 17 17 17 16 16 16 16 16 16 16 16 16 16 16 16 16 15 15 15 15 15 15 15 16 16 16 16 16 15 15 15 14 14 14 14 14 14 14
19 19 18 18 17 17 17 17 16 16 16 16 16 16 15 16 16 16 16 16 16 15 15 15 15 15 15 15 15 16 16 16 16 16 15 15 14 14 14 14 14 14 14
19 18 18 18 17 17 17 17 16 16 16 16 16 16 16 16 16 16 15 16 16 15 15 15 15 15 15 15 15 15 15 16 16 15 15 15 15 14 14 14 14 14 14
Wind_Speed
7 10 10 10 9 9 10 10 9 9 10 9 9 9 9 9 10 10 10 10 10 10 10 10 10 10 10 9 9 8 8 7 7 6 7 7 8 8 8 8 7 7 8
10 12 11 10 10 10 10 10 10 10 10 9 9 9 9 10 10 10 10 10 10 10 10 9 9 10 9 8 8 7 7 6 5 4 4 6 7 7 7 7 7 6 7
11 12 11 10 10 10 10 10 11 11 10 9 9 9 9 10 10 10 9 9 10 10 10 9 10 9 9 8 7 7 6 5 5 4 3 5 7 8 8 7 7 7 7
12 12 11 11 11 11 10 11 11 11 10 10 9 9 9 9 9 9 9 9 9 9 9 9 9 9 9 8 7 6 6 6 6 6 6 8 9 10 9 8 8 7 7
12 13 12 11 11 11 11 11 11 11 11 10 10 9 9 9 9 8 8 8 8 9 9 8 8 8 8 7 7 6 6 7 7 7 9 11 11 11 10 9 8 8 8
12 14 13 12 12 12 12 11 10 10 11 10 10 10 9 9 9 8 8 8 8 8 8 8 7 8 8 7 7 6 7 8 6 7 10 12 11 11 11 10 9 9 8
11 13 13 13 13 12 12 11 11 11 10 10 10 10 9 9 9 8 8 9 8 8 7 7 7 7 7 7 6 6 8 8 4 8 10 12 11 11 11 11 10 9 9
11 12 14 13 13 13 12 11 11 10 10 10 10 9 9 9 9 8 9 8 8 7 7 7 6 6 6 6 5 6 7 9 8 10 12 11 12 11 11 11 10 9 9
9 10 12 13 13 13 12 11 10 10 9 9 8 8 8 8 8 8 8 8 7 7 7 7 6 5 5 4 4 4 6 8 9 9 11 11 11 11 11 11 11 10 9
8 8 8 12 13 12 11 11 10 9 8 8 7 6 6 7 7 8 8 7 6 6 6 5 5 4 4 3 3 4 5 6 10 13 11 11 12 11 11 11 11 11 10
7 6 6 8 9 11 11 11 10 9 7 7 6 5 5 5 7 8 8 7 6 5 4 3 3 3 2 1 1 3 5 6 12 12 11 12 12 12 12 12 12 12 11
7 6 6 6 7 8 8 9 8 7 7 6 5 4 4 4 6 8 8 7 5 4 3 2 1 1 2 1 0 2 5 10 11 11 11 13 13 13 12 12 12 12 12
7 6 6 6 6 6 5 6 4 5 4 4 5 4 4 5 6 6 7 6 5 4 2 2 2 1 2 4 5 7 9 11 11 12 12 14 14 13 13 13 13 13 13
7 6 6 5 5 6 6 4 4 3 3 3 3 5 4 2 2 3 3 4 4 3 2 2 2 5 5 7 8 8 9 9 10 11 12 15 15 14 14 14 14 14 14
7 6 6 4 5 6 4 2 4 3 3 5 3 3 4 2 2 2 3 3 3 4 4 3 4 5 5 7 9 9 8 9 9 11 11 14 15 16 15 15 15 15 15
7 7 5 5 5 5 4 2 3 4 4 4 3 2 5 3 2 2 3 3 3 4 4 4 4 4 4 5 6 7 8 8 8 9 10 12 15 16 17 17 17 16 17
7 8 6 5 5 5 5 3 3 3 4 4 2 2 4 4 4 3 2 2 2 5 6 5 5 5 4 4 5 6 7 7 7 8 9 9 11 14 16 16 17 17 17
8 8 6 5 6 6 5 3 2 4 5 4 3 4 5 4 7 4 2 2 3 4 5 3 3 3 4 4 4 4 4 5 6 7 9 10 9 10 12 14 15 16 17
7 8 7 6 6 6 4 3 3 4 4 4 5 6 6 6 7 6 2 2 5 4 2 3 4 4 4 3 3 4 4 4 4 7 7 9 9 9 9 11 13 14 16
7 7 8 7 6 6 3 3 3 4 3 5 5 5 6 5 6 6 2 3 5 3 3 4 4 4 3 3 4 5 4 3 3 4 5 7 8 9 9 8 9 11 15
7 6 8 7 6 5 2 3 3 3 2 3 3 5 5 5 5 5 3 3 3 3 3 3 3 3 2 2 3 2 3 3 3 3 4 4 5 7 8 9 9 10 11
8 7 8 7 6 6 3 2 3 3 3 4 3 4 5 5 5 3 3 2 3 3 3 3 2 2 1 1 1 1 1 2 3 3 3 4 4 6 6 9 10 11 12
9 7 7 8 7 7 5 3 3 3 2 3 3 3 3 4 5 5 4 3 2 3 2 2 2 2 1 1 2 1 1 1 1 2 3 3 4 4 4 7 10 11 12
9 7 7 8 7 7 6 3 3 3 3 3 3 3 3 4 5 4 4 3 2 3 2 1 3 2 2 1 1 1 1 2 2 1 2 2 4 5 4 6 8 11 12
8 7 6 8 8 7 6 4 2 3 2 3 3 4 4 3 3 3 3 2 2 2 2 3 3 2 2 1 1 1 2 1 1 3 1 1 2 3 4 4 6 8 10
9 8 7 8 8 6 5 5 3 4 3 4 4 3 3 2 2 2 2 2 2 2 2 3 3 3 2 2 2 2 2 2 1 2 2 2 2 2 4 4 5 6 9
Wind_Direction
95 98 99 92 89 87 80 76 79 85 82 81 82 82 82 81 79 79 80 77 76 75 71 69 69 69 68 63 58 55 53 52 53 58 62 62 62 59 53 44 44 55 55
102 98 97 91 90 89 86 83 84 85 84 82 80 80 81 81 78 79 80 78 77 76 73 70 69 67 65 63 58 54 50 43 38 38 61 70 68 65 61 51 48 52 52
99 100 95 91 90 89 87 87 89 90 90 88 84 83 82 81 80 79 78 77 76 75 73 69 69 65 61 59 56 47 37 21 11 10 35 74 76 68 63 55 51 53 50
94 92 92 95 92 91 90 90 91 92 91 88 85 84 84 83 80 78 78 77 74 73 71 68 66 64 60 54 48 40 21 4 5 18 45 57 63 61 57 55 51 51 47
93 92 92 96 96 94 91 91 94 94 92 90 90 86 86 85 81 77 75 74 72 72 71 68 63 61 58 52 43 31 12 360 10 39 60 63 64 59 56 54 50 46 44
98 98 99 97 97 96 94 92 93 94 94 94 94 90 89 87 84 80 79 77 73 72 72 69 63 59 55 49 38 25 6 358 24 62 67 67 65 58 54 51 50 45 43
99 103 105 102 101 98 96 96 100 100 99 98 97 94 91 87 84 83 83 81 76 73 73 68 62 58 55 49 37 19 359 356 51 74 76 70 64 60 54 51 48 46 43
107 110 112 107 103 100 99 98 102 102 100 101 99 97 96 94 92 86 83 81 79 75 74 72 65 61 59 53 37 12 357 3 58 71 74 66 62 57 51 48 47 44 41
109 116 122 121 110 102 99 102 104 105 105 105 107 107 108 110 105 97 91 86 83 80 76 75 74 67 65 60 31 2 357 14 51 60 68 61 58 56 51 49 45 43 40
109 113 122 125 125 120 111 112 117 118 118 118 125 136 138 137 128 115 105 96 89 82 84 83 83 80 76 64 21 351 347 20 67 61 60 59 57 58 54 49 46 44 41
112 116 118 122 127 125 123 126 135 138 140 143 154 169 172 169 151 130 111 112 105 98 100 105 110 124 123 111 13 348 357 69 76 69 54 55 56 57 54 50 45 42 40
123 118 114 118 121 117 121 135 149 144 152 164 150 154 161 135 116 121 129 133 133 137 145 171 204 176 172 183 90 22 42 67 75 72 57 57 57 55 53 50 46 43 39
117 112 109 111 114 117 114 122 128 129 142 134 120 123 111 112 133 137 151 161 166 169 185 178 195 181 143 99 78 75 67 70 70 69 60 60 58 56 54 51 47 44 41
110 109 108 110 115 113 114 123 136 124 117 100 92 99 91 95 103 110 122 140 140 121 82 75 70 60 68 75 69 70 74 81 87 82 67 64 60 56 54 53 49 46 43
117 119 106 101 99 101 103 134 122 105 90 99 77 85 102 86 73 94 96 86 76 85 80 62 68 64 56 58 64 62 64 70 81 94 80 70 65 58 55 53 50 47 44
139 127 112 112 103 117 125 116 111 111 117 102 94 91 103 101 88 73 80 76 69 69 72 70 76 75 68 60 62 65 60 64 68 90 97 82 72 63 56 51 49 47 46
134 123 119 111 100 87 87 75 90 105 104 92 79 72 97 95 96 78 75 76 76 74 69 60 62 73 80 75 70 66 60 50 60 75 88 91 83 69 61 55 50 48 46
130 123 122 108 96 79 72 69 76 89 84 84 70 49 60 80 90 83 64 80 92 83 84 75 52 68 73 66 68 62 69 47 57 67 77 79 75 76 68 62 54 51 46
133 130 127 109 102 89 87 93 52 77 79 78 70 55 44 57 84 81 48 44 76 75 63 74 65 69 79 73 88 78 67 52 40 56 66 72 69 75 80 71 60 54 48
122 125 123 115 113 107 93 95 77 68 68 71 69 66 53 52 72 81 65 52 67 71 63 69 76 70 73 70 73 77 69 68 52 45 49 63 64 66 68 72 68 60 54
135 135 132 137 130 118 98 99 102 100 91 82 81 73 60 58 70 78 62 57 58 76 83 93 86 94 86 88 78 71 52 61 70 69 53 52 59 58 65 66 63 61 60
153 158 156 145 129 116 102 112 125 115 106 94 77 67 60 58 52 79 78 81 79 79 70 78 91 76 79 117 104 101 107 42 21 69 73 62 54 48 51 63 68 65 64
157 166 149 133 130 130 127 87 84 84 89 94 94 75 59 63 50 50 59 72 99 104 110 116 108 101 50 36 66 87 98 118 119 41 72 78 68 52 45 53 63 66 66
160 158 146 138 133 123 117 110 122 113 111 116 117 119 95 70 69 48 54 56 80 92 114 124 100 96 86 38 5 26 99 124 133 100 32 67 78 69 57 57 60 68 68
153 144 138 127 121 118 121 122 122 116 125 120 115 117 112 96 88 70 51 44 74 89 97 84 82 78 84 80 37 24 24 21 46 116 119 86 67 69 73 66 67 68 70
142 137 132 127 125 128 135 149 150 137 149 129 120 121 125 118 97 89 71 59 73 82 84 86 89 83 67 52 39 45 55 56 29 71 113 118 107 88 80 71 74 73 72
Height
1522 1521 1521 1521 1522 1522 1523 1523 1524 1524 1525 1526 1527 1528 1529 1529 1530 1531 1531 1531 1532 1532 1533 1533 1533 1534 1534 1534 1534 1534 1535 1535 1535 1535 1535 1535 1535 1535 1535 1535 1535 1535 1535
1522 1521 1522 1522 1522 1522 1523 1524 1524 1525 1526 1527 1528 1529 1530 1530 1531 1531 1532 1532 1533 1533 1533 1534 1534 1535 1535 1535 1535 1535 1535 1536 1536 1536 1536 1535 1535 1535 1535 1535 1535 1535 1535
1522 1522 1522 1522 1523 1523 1524 1524 1525 1525 1526 1528 1529 1529 1530 1531 1531 1532 1532 1533 1533 1534 1534 1535 1535 1535 1535 1535 1536 1536 1536 1536 1536 1536 1536 1536 1535 1535 1535 1535 1535 1535 1535
1523 1523 1523 1523 1523 1524 1524 1525 1526 1526 1527 1528 1529 1530 1531 1531 1532 1532 1533 1533 1534 1534 1535 1535 1536 1536 1536 1536 1536 1537 1537 1537 1537 1537 1537 1537 1536 1536 1536 1535 1535 1535 1535
1524 1524 1523 1523 1524 1524 1525 1526 1526 1527 1528 1529 1529 1530 1531 1532 1532 1533 1533 1534 1534 1535 1535 1536 1536 1536 1537 1537 1537 1537 1538 1538 1538 1538 1538 1537 1536 1536 1536 1536 1536 1535 1535
1524 1524 1524 1524 1525 1525 1526 1527 1527 1528 1529 1529 1530 1531 1531 1532 1532 1533 1533 1534 1535 1535 1535 1536 1536 1537 1537 1537 1538 1538 1538 1539 1539 1539 1538 1538 1537 1537 1536 1536 1536 1535 1535
1526 1525 1525 1525 1526 1526 1527 1527 1528 1529 1530 1530 1531 1532 1532 1533 1533 1534 1534 1535 1535 1536 1536 1536 1537 1537 1537 1538 1538 1539 1539 1540 1540 1539 1539 1538 1538 1538 1537 1537 1536 1536 1535
1527 1527 1527 1527 1527 1527 1528 1529 1529 1530 1531 1532 1532 1533 1534 1534 1534 1535 1535 1536 1536 1536 1537 1537 1537 1538 1538 1539 1539 1540 1540 1540 1541 1540 1540 1539 1539 1538 1538 1537 1537 1536 1535
1528 1528 1528 1528 1528 1529 1529 1530 1531 1532 1532 1533 1534 1534 1535 1536 1536 1536 1537 1537 1537 1537 1538 1538 1538 1539 1539 1540 1540 1541 1541 1541 1541 1541 1540 1540 1539 1539 1538 1538 1537 1536 1535
1530 1530 1530 1530 1530 1530 1531 1532 1532 1534 1534 1535 1535 1536 1537 1537 1538 1538 1538 1539 1539 1539 1539 1539 1540 1540 1540 1541 1542 1542 1542 1542 1542 1542 1541 1541 1540 1539 1539 1538 1538 1537 1536
1531 1532 1532 1532 1532 1533 1533 1534 1534 1535 1536 1536 1537 1538 1538 1539 1540 1540 1540 1541 1540 1541 1541 1541 1541 1542 1542 1543 1543 1543 1543 1543 1543 1542 1542 1542 1541 1540 1539 1539 1538 1537 1536
1532 1533 1533 1534 1534 1534 1535 1535 1536 1537 1537 1538 1539 1539 1540 1541 1542 1542 1542 1542 1542 1542 1543 1543 1543 1543 1544 1544 1544 1545 1545 1545 1544 1543 1543 1543 1542 1541 1540 1539 1539 1538 1536
1533 1534 1535 1535 1535 1535 1536 1537 1538 1539 1539 1540 1541 1541 1542 1543 1543 1544 1543 1544 1544 1544 1544 1545 1545 1545 1545 1546 1546 1546 1546 1546 1545 1545 1544 1544 1543 1542 1541 1540 1539 1538 1537
1534 1535 1536 1536 1536 1537 1538 1538 1539 1540 1541 1541 1542 1543 1544 1544 1545 1545 1545 1546 1546 1546 1546 1546 1547 1547 1547 1548 1548 1548 1547 1547 1547 1546 1546 1545 1544 1544 1543 1541 1540 1539 1537
1534 1535 1536 1537 1537 1538 1538 1539 1540 1541 1542 1542 1543 1544 1545 1546 1546 1547 1547 1547 1548 1548 1548 1548 1548 1548 1548 1549 1549 1549 1549 1549 1548 1548 1547 1547 1546 1545 1544 1543 1541 1540 1538
1534 1535 1537 1538 1538 1539 1539 1540 1541 1542 1543 1543 1544 1545 1546 1546 1547 1548 1548 1548 1549 1549 1549 1549 1550 1550 1550 1550 1550 1551 1551 1550 1550 1549 1549 1548 1547 1546 1545 1544 1542 1541 1539
1534 1535 1537 1538 1539 1539 1540 1541 1542 1543 1543 1544 1545 1546 1546 1547 1548 1549 1549 1549 1550 1550 1550 1550 1551 1551 1551 1551 1552 1552 1552 1552 1552 1551 1550 1550 1549 1548 1547 1546 1544 1542 1541
1534 1535 1537 1539 1539 1540 1541 1542 1543 1543 1544 1545 1546 1546 1547 1548 1549 1549 1550 1550 1551 1551 1551 1551 1552 1552 1553 1553 1553 1553 1554 1554 1554 1554 1553 1552 1551 1550 1549 1547 1546 1544 1542
1534 1535 1537 1539 1540 1541 1541 1542 1543 1544 1545 1546 1546 1547 1548 1549 1549 1550 1551 1551 1552 1552 1552 1553 1553 1553 1554 1554 1554 1555 1555 1555 1555 1555 1555 1554 1553 1552 1550 1549 1548 1546 1544
1534 1535 1537 1538 1540 1541 1542 1543 1544 1545 1546 1546 1547 1548 1549 1549 1550 1550 1551 1552 1552 1552 1553 1553 1554 1554 1555 1555 1556 1556 1556 1556 1556 1556 1556 1555 1555 1554 1552 1551 1550 1548 1546
1533 1535 1536 1538 1540 1541 1542 1544 1545 1545 1546 1547 1548 1549 1549 1550 1550 1551 1552 1552 1552 1553 1554 1554 1555 1555 1556 1556 1557 1557 1557 1558 1558 1558 1557 1557 1556 1555 1554 1553 1552 1550 1548
1532 1535 1536 1538 1540 1541 1543 1544 1545 1546 1547 1548 1548 1549 1550 1550 1551 1552 1552 1553 1553 1553 1554 1555 1555 1556 1557 1557 1558 1558 1558 1560 1559 1559 1559 1558 1558 1557 1556 1555 1554 1552 1550
1531 1534 1536 1537 1539 1541 1543 1544 1546 1546 1547 1548 1549 1550 1550 1551 1551 1552 1552 1553 1553 1554 1554 1555 1556 1557 1557 1558 1558 1559 1559 1560 1560 1561 1560 1560 1559 1559 1558 1557 1556 1554 1553
1530 1533 1535 1537 1539 1540 1542 1544 1546 1546 1548 1549 1549 1550 1551 1551 1552 1552 1553 1553 1554 1554 1555 1556 1556 1557 1557 1558 1558 1559 1559 1560 1560 1561 1562 1561 1561 1560 1559 1558 1557 1556 1555
1528 1531 1534 1536 1538 1540 1542 1544 1545 1547 1548 1549 1550 1550 1551 1551 1552 1552 1553 1554 1554 1555 1555 1556 1557 1557 1557 1558 1558 1559 1559 1560 1560 1561 1562 1563 1562 1561 1561 1560 1559 1558 1557
1526 1529 1532 1535 1537 1539 1541 1543 1545 1546 1548 1549 1550 1551 1551 1552 1552 1553 1553 1554 1555 1555 1556 1556 1557 1557 1558 1558 1559 1559 1559 1560 1560 1561 1561 1562 1562 1563 1562 1562 1561 1560 1559